Tracking 30685 objects as of 18-Jun-2025
HD Live streaming from Space Station
objects crossing your sky now

NIMBUS 5

Track NIMBUS 5 now!
10-day predictions
NIMBUS 5 is classified as:


NORAD ID: 6305
Int'l Code: 1972-097A
Perigee: 1,094.7 km
Apogee: 1,106.7 km
Inclination: 99.8 °
Period: 107.1 minutes
Semi major axis: 7471 km
RCS: 3.4528 m2 (large)
Launch date: December 11, 1972
Source: United States (US)
Launch site: AIR FORCE WESTERN TEST RANGE (AFWTR)
Your satellite tracking list
Your tracking list is empty




NASA's NSSDC Master Catalog

Two Line Element Set (TLE):
1 06305U 72097A   25167.50802972 -.00000020  00000-0  40316-4 0  9994
2 06305  99.8382  70.1601 0008053 329.1383 204.0420 13.44235567575598
Source of the keplerian elements: AFSPC